Location: Alpha Ridge Park
(39.3209°N, 76.9128°W)
Time: 06:38:34
(UTC-04:00)

Vanguard 2 Rocket - Pass Details

Date: 22 May 2019
Orbit: 554 x 3326 km, 32.9° (Epoch: 17 June)

Event Time Altitude Azimuth Distance (km) Brightness Sun altitude
Rises 10:53:39 0° 270° (W) 6,005 10.8 56.2°
Reaches altitude 10° 10:58:24 10° 267° (W) 4,540 10.3 57.1°
Maximum altitude 11:09:12 51° 196° (SSW) 1,613 9.1 58.9°
Drops below altitude 10° 11:15:23 10° 122° (ESE) 2,645 10.0 60.0°
Sets 11:17:28 0° 116° (ESE) 3,363 10.3 60.3°
